Wind_Speed
26 24 23 23 26 26 24 23 22 21 20 19 18 17 16 15 14 13 13 12 12 11 10 10 9 8 7 7 7 7 7 6 6 6 6 7 7 6 5 5 5 5
26 26 25 24 24 25 26 24 23 22 21 19 18 18 17 16 15 14 13 12 12 11 11 10 10 9 8 7 7 7 7 7 7 7 6 7 6 6 6 5 4 4
26 26 26 25 24 23 24 24 23 23 22 21 20 19 19 17 16 15 14 13 13 12 11 11 10 10 8 7 7 7 7 8 8 8 7 7 7 6 6 5 5 4
26 26 25 25 24 23 23 23 23 23 23 22 21 20 20 18 17 17 16 15 14 13 12 11 11 10 9 8 7 7 7 8 8 8 8 8 8 7 6 6 6 5
27 26 25 25 25 24 24 24 23 23 23 22 22 21 21 19 18 18 17 17 16 15 14 13 12 11 10 9 8 8 7 7 8 8 9 9 9 9 8 7 7 7
28 28 27 26 25 25 25 24 23 23 23 23 23 22 21 21 19 18 18 17 17 17 16 15 14 13 12 10 9 8 8 7 8 9 9 10 11 10 10 9 8 8
28 28 28 28 27 26 26 25 24 24 24 24 24 23 22 22 21 20 19 18 18 18 18 17 16 15 14 13 11 10 9 8 8 8 9 11 12 12 12 11 10 10
27 27 28 28 28 28 27 26 25 25 24 25 25 25 24 23 21 20 20 19 19 18 18 18 18 17 16 15 14 12 11 10 9 8 9 11 12 12 13 13 13 12
26 26 27 28 29 30 29 28 26 25 25 25 26 25 25 24 23 21 20 21 21 20 19 19 19 19 18 17 15 14 12 11 10 9 10 11 11 12 13 14 14 14
27 26 27 27 28 29 29 29 28 27 26 26 26 26 26 25 24 22 21 20 22 22 21 20 20 20 19 18 17 16 15 13 12 11 10 11 11 12 13 14 15 15
28 27 27 28 28 28 29 29 29 28 28 27 26 27 27 26 25 24 22 20 21 22 22 21 20 20 20 19 18 17 16 15 14 12 11 11 11 11 12 13 14 15
28 28 28 28 28 27 27 27 28 29 29 28 27 26 26 26 25 24 23 21 20 21 22 21 20 21 21 20 19 19 18 17 16 14 12 12 11 11 11 11 12 14
27 27 28 28 28 27 26 26 27 28 28 28 28 27 27 26 26 24 22 21 20 20 21 20 20 21 21 22 21 20 20 19 17 15 14 13 12 11 12 11 11 12
25 25 26 27 27 28 27 27 27 27 27 27 27 28 28 27 26 24 22 21 20 20 20 20 21 22 22 23 23 22 21 20 18 17 15 14 13 12 12 12 12 12
22 23 24 26 27 28 28 28 27 26 26 26 26 28 28 27 26 24 22 22 21 21 20 20 22 22 22 23 23 23 22 20 19 18 17 16 15 14 13 13 12 12
22 22 23 24 26 27 27 27 27 26 26 26 26 26 27 27 27 25 23 22 21 21 22 22 22 22 22 22 23 23 22 21 20 19 19 18 17 16 15 14 13 13
23 23 23 23 24 24 25 26 26 26 26 26 26 26 27 27 28 27 24 23 22 22 22 22 22 21 21 22 22 23 23 23 22 20 21 20 20 19 17 16 15 15
24 24 24 24 23 23 24 24 25 25 25 26 26 26 26 27 28 28 25 23 23 23 23 22 22 21 21 21 22 23 24 24 23 22 22 22 22 21 19 18 17 16
26 25 24 24 24 24 24 24 25 25 24 25 25 25 26 27 27 28 27 25 24 24 23 23 22 21 21 21 21 22 23 24 24 24 23 23 23 22 21 20 19 18
29 26 25 24 24 25 25 26 26 25 23 24 24 24 25 26 27 28 28 27 25 24 24 23 22 22 21 21 21 22 23 23 24 24 24 24 23 23 23 22 20 19
31 29 27 26 25 26 26 27 27 26 24 24 24 24 24 24 25 27 28 28 27 25 24 24 23 22 22 21 21 21 21 22 23 24 24 25 25 25 24 23 21 20
31 30 29 27 27 27 27 27 27 27 27 25 24 24 23 24 25 26 27 28 29 27 26 25 24 23 23 22 21 20 20 20 21 23 24 25 25 25 25 23 21 20
31 30 30 29 29 28 27 27 27 28 28 28 27 25 24 24 25 26 26 27 28 29 28 26 25 24 24 24 23 21 21 21 21 22 23 24 25 25 25 24 22 21
31 31 31 30 30 29 29 28 28 28 29 29 29 27 25 24 24 25 26 26 27 29 29 28 26 25 25 25 24 23 23 22 22 22 23 24 24 25 25 24 22 21
32 32 32 32 31 30 30 30 29 28 28 29 30 30 28 26 25 25 26 27 27 28 29 29 28 27 26 25 24 24 24 24 24 24 24 24 24 25 25 25 23 21
35 34 33 33 32 32 32 32 31 30 30 30 30 31 31 30 28 27 26 27 28 28 29 30 30 29 28 26 25 25 25 25 26 26 25 25 24 25 25 25 23 21
Wind_Direction
220 221 219 215 215 217 215 212 211 211 211 209 206 203 200 199 197 193 193 193 191 191 191 190 190 189 186 183 178 172 169 165 156 150 145 139 136 137 137 136 133 128
220 221 222 219 217 217 218 217 215 213 214 213 211 209 207 206 204 199 198 200 198 197 195 192 192 196 196 193 189 184 180 173 167 167 165 158 152 147 144 142 136 131
220 222 223 223 221 220 220 220 220 217 215 215 214 214 214 212 210 207 205 204 205 204 200 196 195 196 199 200 198 195 191 186 180 177 177 175 170 163 158 152 149 147
219 222 223 223 224 224 223 222 221 219 218 217 215 216 217 217 215 213 211 209 209 210 207 203 199 197 199 200 202 202 199 196 192 187 185 186 185 181 176 169 166 167
220 222 223 223 223 224 225 224 221 220 220 220 218 217 218 220 219 217 214 212 212 212 211 207 202 200 201 200 202 203 203 203 201 197 194 195 195 193 191 186 179 178
221 221 222 223 223 223 224 225 224 222 222 222 222 220 219 220 221 220 218 215 213 213 213 210 205 203 203 203 203 204 207 211 212 207 203 202 201 199 200 199 191 185
221 221 222 222 223 223 223 224 225 224 222 223 225 225 223 221 220 220 220 219 216 215 214 212 208 206 206 206 206 208 211 216 218 214 210 209 207 204 204 206 204 198
221 222 222 222 222 224 222 222 223 224 223 224 225 227 228 227 224 219 216 217 219 217 214 213 211 210 209 207 206 209 212 215 216 213 214 217 214 211 210 209 209 208
220 222 223 223 223 224 223 221 222 223 224 224 226 228 229 232 231 226 218 214 218 221 218 214 212 212 212 207 204 207 210 212 215 214 217 222 222 220 217 214 213 212
216 219 222 223 223 223 224 222 221 222 224 225 226 228 230 231 233 233 226 216 215 220 222 218 213 211 213 209 205 207 210 213 218 221 221 223 225 226 224 220 217 216
214 216 219 221 222 223 223 223 223 222 223 225 226 228 230 232 232 233 232 223 217 218 223 223 218 213 214 213 210 210 213 216 221 225 227 226 226 228 229 228 224 221
213 215 218 220 221 222 223 223 224 224 223 224 226 228 230 232 233 233 233 229 222 220 222 224 221 216 214 215 214 213 215 219 223 226 229 230 229 231 234 234 230 226
215 216 218 220 222 223 223 223 224 225 225 224 224 227 229 231 233 233 233 231 226 224 223 222 221 218 214 214 216 216 215 219 225 229 231 231 230 230 234 236 234 230
215 216 219 221 222 223 224 224 225 226 227 225 224 226 228 230 232 232 232 232 230 227 225 221 220 218 214 213 215 217 218 218 223 230 234 235 233 231 231 234 236 235
213 214 218 220 222 224 224 226 227 227 228 227 225 226 228 230 232 230 229 229 230 229 227 224 220 218 215 213 214 218 220 221 223 228 233 236 238 238 236 233 234 236
211 211 215 219 221 224 225 227 229 229 229 229 227 227 228 230 232 230 226 224 226 228 229 227 222 219 216 214 214 217 221 224 225 227 230 233 236 239 239 237 236 236
209 209 212 217 220 223 225 228 230 230 231 232 230 228 228 230 232 232 227 222 223 225 227 227 225 222 219 216 215 217 221 225 227 227 228 231 234 237 237 237 236 237
209 209 211 215 219 221 224 228 230 232 232 233 232 230 229 230 232 234 231 224 222 224 226 227 227 226 224 220 218 219 222 226 229 229 228 229 234 238 238 236 235 236
211 211 212 215 218 220 223 226 229 232 233 235 235 233 231 231 232 235 235 229 223 222 225 227 226 228 227 225 223 222 224 226 229 232 232 232 235 238 240 239 237 236
213 213 213 216 218 221 223 225 228 232 234 236 237 235 233 232 231 233 235 235 229 223 224 226 225 226 227 227 226 226 226 228 230 233 236 238 239 240 240 241 241 241
213 214 214 216 218 219 223 225 227 231 233 235 237 236 236 236 234 233 234 237 236 230 225 225 224 225 226 227 227 226 226 229 232 233 236 239 241 243 243 242 242 244
212 213 215 216 217 219 221 224 226 229 231 234 236 237 238 237 236 235 234 235 238 237 233 228 224 224 225 228 229 225 224 229 234 236 236 238 241 245 247 246 245 246
213 213 215 217 218 219 221 222 225 227 228 232 234 236 238 237 236 237 235 235 238 240 239 235 228 224 223 227 230 229 228 230 234 237 239 240 242 246 248 250 249 248
217 215 216 218 220 222 222 222 223 225 227 230 233 236 238 239 239 239 238 237 237 239 242 242 237 231 226 225 227 229 232 234 235 238 240 242 244 247 250 252 252 252
220 219 218 220 222 225 226 224 224 225 227 230 233 236 238 239 240 240 240 239 237 237 240 242 243 241 235 230 226 226 229 232 235 238 240 241 244 248 252 256 257 257
223 222 222 222 223 226 228 227 226 225 226 228 231 234 237 238 239 240 241 241 239 237 237 239 241 243 242 238 234 231 230 232 235 238 240 242 245 248 252 256 259 260
Height
3213 3215 3217 3219 3221 3223 3225 3227 3229 3230 3232 3233 3235 3236 3237 3238 3239 3240 3241 3241 3242 3243 3244 3245 3246 3247 3247 3248 3249 3249 3250 3251 3252 3252 3253 3254 3254 3255 3255 3255 3256 3255
3212 3213 3215 3217 3219 3221 3223 3225 3227 3229 3230 3232 3233 3235 3236 3237 3238 3239 3240 3241 3241 3242 3243 3244 3245 3246 3247 3247 3248 3249 3250 3250 3251 3252 3253 3254 3254 3255 3255 3255 3256 3256
3210 3211 3213 3215 3217 3220 3222 3223 3225 3227 3229 3230 3231 3233 3234 3235 3237 3238 3239 3240 3240 3241 3242 3243 3244 3245 3246 3247 3247 3248 3249 3250 3251 3252 3252 3253 3254 3254 3255 3255 3256 3256
3207 3209 3211 3213 3215 3218 3220 3222 3223 3225 3226 3228 3229 3231 3232 3234 3235 3236 3237 3238 3239 3240 3241 3242 3243 3244 3245 3246 3246 3247 3248 3249 3250 3251 3252 3252 3253 3254 3254 3255 3256 3256
3205 3207 3209 3211 3213 3216 3217 3219 3221 3223 3224 3226 3227 3229 3230 3232 3233 3234 3236 3237 3238 3239 3240 3241 3242 3243 3244 3244 3245 3246 3247 3248 3249 3250 3251 3252 3252 3253 3254 3255 3255 3256
3203 3205 3207 3209 3211 3213 3215 3217 3219 3221 3223 3224 3225 3227 3228 3230 3231 3232 3234 3235 3236 3237 3238 3239 3240 3241 3242 3243 3244 3245 3246 3246 3247 3249 3249 3250 3251 3252 3253 3254 3254 3255
3200 3202 3205 3207 3209 3210 3212 3215 3217 3219 3221 3222 3223 3225 3226 3227 3229 3230 3232 3233 3234 3235 3237 3238 3239 3240 3241 3242 3242 3243 3244 3245 3246 3247 3248 3249 3250 3250 3251 3252 3253 3254
3197 3200 3202 3204 3206 3208 3210 3212 3214 3216 3218 3220 3221 3222 3224 3225 3226 3228 3230 3231 3232 3233 3235 3236 3237 3238 3239 3240 3241 3242 3243 3244 3244 3245 3246 3247 3248 3249 3250 3250 3251 3252
3195 3197 3199 3201 3203 3205 3207 3209 3211 3214 3216 3217 3219 3220 3221 3222 3224 3226 3227 3229 3230 3231 3232 3234 3235 3236 3237 3238 3239 3240 3241 3242 3243 3244 3245 3245 3246 3247 3248 3249 3250 3251
3191 3194 3196 3198 3200 3202 3204 3206 3209 3211 3213 3214 3216 3218 3219 3220 3222 3223 3224 3226 3227 3228 3230 3231 3233 3234 3235 3236 3237 3238 3239 3240 3241 3242 3242 3243 3244 3245 3245 3246 3248 3249
3188 3190 3193 3195 3197 3199 3201 3204 3206 3208 3210 3212 3213 3215 3216 3217 3219 3220 3222 3223 3225 3226 3227 3229 3230 3232 3233 3234 3236 3236 3237 3238 3238 3239 3240 3241 3242 3243 3243 3244 3245 3247
3184 3186 3189 3192 3194 3197 3199 3201 3203 3205 3207 3208 3210 3212 3213 3215 3216 3217 3219 3220 3222 3224 3225 3227 3228 3230 3231 3232 3233 3234 3235 3236 3236 3237 3238 3239 3240 3241 3241 3242 3243 3244
3181 3183 3186 3189 3192 3194 3197 3199 3200 3202 3204 3206 3207 3209 3210 3211 3213 3215 3216 3218 3220 3221 3222 3224 3225 3227 3228 3230 3231 3232 3233 3233 3234 3235 3236 3237 3238 3239 3239 3240 3241 3242
3178 3180 3183 3186 3189 3192 3194 3196 3198 3199 3201 3203 3205 3206 3207 3208 3210 3212 3214 3215 3217 3218 3219 3221 3222 3223 3225 3227 3228 3229 3230 3231 3232 3232 3233 3234 3235 3236 3237 3238 3238 3239
3176 3178 3181 3183 3186 3189 3191 3193 3195 3197 3198 3200 3201 3203 3204 3205 3207 3209 3211 3212 3214 3215 3217 3218 3219 3220 3222 3223 3225 3226 3227 3228 3229 3230 3231 3232 3233 3233 3234 3235 3236 3237
3174 3176 3178 3181 3183 3185 3188 3190 3192 3194 3195 3197 3198 3200 3201 3203 3204 3205 3207 3209 3211 3212 3213 3214 3215 3217 3219 3221 3222 3223 3224 3225 3226 3227 3228 3229 3230 3231 3231 3232 3233 3234
3172 3173 3175 3178 3180 3183 3185 3187 3189 3191 3193 3194 3196 3197 3199 3200 3201 3202 3204 3206 3207 3209 3210 3211 3212 3214 3216 3218 3219 3221 3221 3222 3223 3225 3226 3226 3227 3228 3229 3230 3230 3231
3170 3171 3173 3175 3178 3180 3183 3185 3187 3188 3190 3191 3192 3194 3196 3197 3198 3199 3201 3203 3204 3205 3207 3208 3210 3211 3213 3215 3216 3218 3219 3219 3220 3221 3222 3223 3224 3225 3226 3227 3228 3228
3168 3169 3171 3173 3175 3178 3180 3182 3184 3185 3186 3188 3189 3192 3193 3194 3195 3196 3197 3199 3201 3203 3204 3205 3207 3208 3210 3212 3214 3215 3216 3217 3217 3218 3219 3220 3221 3222 3223 3223 3224 3225
3166 3167 3168 3171 3173 3175 3177 3179 3180 3182 3184 3185 3187 3188 3190 3191 3192 3193 3194 3196 3198 3200 3201 3202 3204 3206 3207 3209 3211 3212 3213 3214 3215 3215 3216 3217 3218 3219 3220 3220 3221 3222
3163 3164 3166 3168 3170 3172 3174 3176 3177 3179 3181 3182 3184 3185 3187 3188 3190 3191 3192 3193 3194 3196 3198 3199 3201 3203 3204 3206 3207 3209 3210 3211 3211 3212 3213 3214 3215 3215 3217 3218 3219 3220
3159 3161 3163 3165 3167 3169 3171 3172 3174 3176 3178 3179 3181 3182 3183 3185 3186 3188 3189 3190 3191 3192 3194 3196 3198 3200 3201 3202 3204 3206 3207 3208 3208 3209 3210 3210 3211 3212 3213 3215 3216 3217
3156 3158 3160 3162 3164 3165 3167 3169 3171 3173 3175 3176 3177 3179 3180 3181 3183 3184 3186 3187 3188 3189 3190 3193 3195 3197 3198 3200 3201 3203 3204 3205 3205 3206 3206 3207 3209 3209 3210 3211 3213 3214
3152 3154 3156 3158 3160 3162 3164 3166 3168 3170 3171 3173 3174 3175 3177 3178 3180 3181 3183 3184 3185 3186 3187 3189 3191 3193 3195 3197 3198 3199 3200 3201 3202 3203 3204 3204 3206 3206 3207 3208 3209 3211
3149 3151 3153 3155 3157 3159 3161 3163 3165 3167 3168 3170 3171 3172 3174 3175 3177 3178 3179 3180 3182 3183 3184 3186 3187 3189 3191 3193 3195 3196 3197 3198 3199 3200 3200 3201 3203 3203 3204 3205 3206 3208
3145 3147 3150 3152 3154 3156 3157 3159 3162 3163 3165 3166 3168 3169 3170 3172 3173 3174 3176 3177 3178 3180 3181 3182 3184 3185 3187 3189 3191 3192 3194 3195 3195 3196 3197 3199 3200 3200 3201 3202 3203 3204